This demonstration page uses our WeatherBlox Daily Observations layout. Learn more.

Left ArrowRight Arrow

Hourly Observations for May 27, 2020

Temp ( °F °C ) Dew Point ( °F °C ) Humidity (%) Winds ( mph kmh ) Pressure ( in mb ) Visibility ( mi km ) Precip ( " mm )
12:51 am 00:51 Clear 70 21.1 19 -7.2 14 14 NNW 3 6 29.78 1008 10 16.0934 0 0
1:51 am 01:51 Clear 68 20 20 -6.7 16 16 Calm 29.78 1008 10 16.0934 0 0
2:51 am 02:51 Clear 64 17.8 18 -7.8 17 17 Calm 29.78 1008 10 16.0934 0 0
3:51 am 03:51 Clear 61 16.1 18 -7.8 19 19 ESE 6 9 29.78 1009 10 16.0934 0 0
4:51 am 04:51 Clear 61 16.1 19 -7.2 20 20 SE 3 6 29.79 1009 10 16.0934 0 0
5:51 am 05:51 Sunny 63 17.2 20 -6.7 19 19 ESE 6 9 29.81 1009 10 16.0934 0 0
6:51 am 06:51 Sunny 69 20.6 21 -6.1 16 16 Calm 29.82 1010 10 16.0934 0 0
7:51 am 07:51 Sunny 75 23.9 23 -5 14 14 VRB 3 6 29.83 1010 10 16.0934 0 0
8:51 am 08:51 Sunny 82 27.8 24 -4.4 12 12 Calm 29.82 1010 10 16.0934 0 0
9:51 am 09:51 Sunny 90 32.2 23 -5 9 9 VRB 6 9 29.79 1009 10 16.0934 0 0
10:51 am 10:51 Sunny 94 34.4 23 -5 8 8 WNW 13 20 29.77 1008 10 16.0934 0 0
11:51 am 11:51 Sunny 98 36.7 25 -3.9 7 7 W 13 20 29.75 1008 10 16.0934 0 0
12:51 pm 12:51 Sunny 99 37.2 26 -3.3 7 7 WNW 13 20 29.72 1006 10 16.0934 0 0
1:51 pm 13:51 Sunny 102 38.9 27 -2.8 7 7 WNW 10 17 29.7 1006 10 16.0934 0 0
2:51 pm 14:51 Sunny 103 39.4 26 -3.3 6 6 WNW 16 26 29.68 1005 10 16.0934 0 0
3:51 pm 15:51 Sunny 103 39.4 25 -3.9 6 6 W 18 30 29.67 1005 10 16.0934 0 0
4:51 pm 16:51 Sunny 103 39.4 26 -3.3 6 6 W 13 20 29.66 1004 10 16.0934 0 0
5:51 pm 17:51 Sunny 100 37.8 25 -3.9 7 7 NW 18 30 29.66 1004 10 16.0934 0 0
6:51 pm 18:51 Sunny 96 35.6 26 -3.3 8 8 WNW 18 30 29.68 1005 10 16.0934 0 0
7:51 pm 19:51 Clear 91 32.8 27 -2.8 10 10 WNW 15 24 29.7 1006 10 16.0934 0 0
8:51 pm 20:51 Clear 88 31.1 28 -2.2 11 11 NW 14 22 29.71 1006 10 16.0934 0 0
9:51 pm 21:51 Clear 86 30 28 -2.2 12 12 NW 13 20 29.72 1007 10 16.0934 0 0
10:51 pm 22:51 Clear 86 30 29 -1.7 13 13 NW 14 22 29.72 1006 10 16.0934 0 0
11:51 pm 23:51 Clear 80 26.7 28 -2.2 15 15 WNW 7 11 29.73 1007 10 16.0934 0 0

Powered by AerisWeather